Wind_Speed
39 39 39 39 41 43 43 44 45 44 43 43 42 42 39 37 37 37 35 38 40 38 37 38 37 37 36 35 35 36 38 38 38 39 41 42 44 45 46 47 46 46 45 44 43 43 44 44 45 44 43 42 42 43 43 43 44 45 46 45 43 41 41 41 40 40 42 44 43 41 40 39 37 38 39 39 40 40 36 34 35 36 36 37 37 38 39
43 42 42 42 44 45 45 45 46 46 45 45 45 44 43 39 37 37 37 38 39 39 40 39 37 37 38 38 38 38 38 37 38 39 39 40 42 43 45 46 47 48 47 45 44 44 44 45 46 46 45 44 44 43 43 43 44 45 46 46 45 44 43 44 45 46 46 45 44 42 41 40 39 38 39 40 42 44 45 45 42 40 39 39 40 41 42
45 44 43 44 44 45 46 45 45 46 47 46 45 45 45 43 41 39 38 40 41 40 41 42 41 42 43 42 41 40 39 38 38 38 38 39 40 41 42 42 42 43 44 43 43 43 43 45 46 46 47 46 46 44 44 44 44 44 45 45 44 45 45 45 46 48 49 49 48 46 44 42 41 40 40 42 43 44 46 46 43 41 41 41 41 43 45
44 44 43 44 44 46 48 47 47 47 47 47 45 44 44 44 42 41 41 43 43 41 41 42 42 43 44 44 42 41 41 42 41 40 40 41 42 43 44 43 41 41 42 42 42 42 43 44 44 45 46 46 46 45 45 45 45 45 46 46 46 47 47 46 47 48 49 50 50 50 49 48 47 46 45 45 46 46 45 45 44 43 42 42 42 44 46
44 43 43 45 47 49 50 47 46 46 45 44 44 44 44 43 42 42 43 44 42 41 42 42 41 42 42 41 41 42 42 43 43 42 42 43 44 46 48 47 45 45 45 44 42 41 42 43 43 44 45 45 46 45 45 46 46 46 47 47 48 50 51 51 51 51 52 52 52 52 52 52 52 52 52 52 51 50 49 49 48 47 47 47 47 48 48
46 44 43 45 48 51 50 45 44 44 42 42 42 43 44 43 42 41 43 44 43 42 43 43 43 44 43 41 42 43 43 45 46 44 43 44 46 47 48 47 48 49 48 45 43 43 43 44 43 44 44 45 45 46 46 46 46 47 48 48 49 50 52 54 54 55 55 55 55 55 54 54 54 54 54 54 54 53 53 53 53 52 53 53 53 53 53
46 45 45 47 49 49 46 43 45 45 43 41 42 43 43 44 43 42 42 44 45 44 45 45 45 45 45 45 45 46 46 47 49 47 45 46 49 51 50 50 52 52 49 47 47 46 46 45 44 45 45 45 45 45 46 46 46 47 48 48 49 50 50 52 53 55 56 56 57 57 57 57 57 56 56 56 56 55 55 55 55 55 56 56 56 57 57
47 47 47 49 48 46 42 42 46 47 43 42 44 45 45 45 45 44 44 46 47 47 48 48 47 47 48 48 49 49 47 47 48 49 48 48 50 52 53 54 55 52 48 48 49 48 47 47 47 47 47 46 46 46 46 46 46 47 47 48 49 49 50 50 51 52 54 55 56 57 57 58 58 58 58 57 57 57 56 56 56 56 56 57 58 58 58
45 45 46 47 46 46 45 45 46 46 44 43 45 46 46 46 46 46 47 47 48 48 49 49 49 49 48 46 46 46 44 44 46 49 51 51 51 51 53 55 54 51 49 50 50 49 49 48 48 49 49 48 48 48 48 48 48 48 48 49 49 49 50 50 51 51 52 53 54 54 55 55 56 56 57 57 57 57 56 56 56 56 56 56 58 59 58
44 44 45 46 46 46 46 45 44 44 42 40 41 42 43 45 46 46 46 46 47 48 48 48 48 48 45 43 42 42 40 43 46 47 48 50 51 52 54 54 53 52 51 51 50 50 50 50 50 50 50 50 50 49 49 49 49 49 50 50 50 50 50 51 51 51 52 53 53 54 54 54 54 54 55 55 56 56 56 56 56 56 55 55 56 58 58
43 43 44 45 46 46 46 45 44 44 42 40 39 40 42 44 46 45 45 45 46 47 47 46 46 45 43 41 41 41 41 45 48 46 44 47 49 50 51 51 51 51 50 50 51 51 51 51 51 51 51 51 51 51 51 50 50 50 50 51 51 51 52 52 51 51 52 52 53 53 54 54 55 55 55 55 55 55 55 55 55 56 55 54 54 55 55
42 42 43 44 44 46 46 45 44 44 43 41 40 40 43 46 46 45 45 46 46 46 46 45 45 43 40 39 40 41 42 46 48 45 44 46 47 47 48 49 50 49 49 49 49 50 50 50 51 51 52 52 51 51 51 51 50 50 50 50 51 51 52 52 52 52 51 51 51 52 52 53 53 54 54 54 54 54 55 55 55 55 55 55 54 53 54
42 42 42 43 43 46 48 47 46 45 43 41 42 43 45 46 46 44 45 46 47 46 44 44 43 42 41 41 42 42 43 46 47 46 46 46 46 47 49 49 48 47 47 48 49 49 50 50 51 51 51 51 51 51 50 50 50 50 49 49 50 50 51 51 51 52 51 51 51 51 51 52 52 52 53 53 53 54 54 54 54 53 54 54 54 54 54
40 40 41 42 43 46 47 47 46 45 42 42 44 45 44 43 43 43 44 46 47 46 45 44 44 44 43 43 43 42 42 44 46 47 47 47 48 49 49 49 49 48 48 49 49 50 51 51 51 52 51 51 51 50 50 50 49 49 49 48 48 49 49 50 50 51 51 50 50 50 50 51 51 51 52 52 53 54 54 53 53 53 53 54 54 54 54
39 40 41 43 44 44 45 45 44 43 44 45 46 45 44 44 44 45 45 46 46 47 47 48 48 48 47 46 46 45 44 44 45 47 49 50 50 50 50 49 50 50 49 50 50 51 51 51 52 52 51 51 51 51 50 50 50 49 49 48 47 47 47 47 48 48 48 48 48 48 48 49 50 50 50 51 52 53 52 52 53 53 53 54 54 54 54
38 40 40 42 43 42 41 42 42 43 46 48 47 45 44 44 44 46 47 46 46 47 47 48 49 49 48 48 48 48 47 47 47 47 49 50 50 50 50 50 50 50 50 50 51 51 52 52 52 52 52 52 52 51 51 50 50 50 48 48 47 46 46 46 45 46 46 47 47 47 47 48 49 49 49 50 51 51 50 50 51 52 52 53 54 53 53
38 37 37 38 39 39 38 39 41 43 45 47 45 44 44 44 44 46 46 46 46 46 46 47 48 48 48 48 48 48 48 48 47 47 49 50 50 51 51 51 51 52 51 51 52 52 52 53 53 53 53 53 52 51 51 51 50 50 49 48 48 47 47 47 47 47 47 48 48 48 48 48 48 49 49 49 48 49 49 50 51 51 51 52 52 51 52
35 37 38 38 38 38 38 38 40 42 43 44 43 44 45 45 46 45 45 46 46 46 47 47 48 48 48 48 49 49 50 49 49 49 50 50 51 52 52 53 53 53 53 53 53 53 53 53 53 53 53 53 52 51 51 51 50 50 49 49 47 47 46 46 47 47 47 48 48 48 48 48 47 48 48 47 47 49 50 51 50 50 51 51 50 50 50
34 35 36 38 38 38 38 39 41 42 42 43 45 46 46 47 47 47 47 47 48 48 49 49 50 50 50 50 50 50 51 52 51 51 51 51 52 53 53 54 54 54 53 53 54 54 54 54 54 54 54 53 52 52 51 51 50 50 49 48 47 46 45 46 47 47 47 48 48 48 48 48 47 48 48 48 49 50 51 51 51 51 50 50 50 50 51
34 34 35 37 39 39 40 40 41 42 42 44 45 46 47 47 47 47 48 48 49 49 50 50 51 51 51 52 52 52 53 54 54 53 53 53 53 53 54 54 55 54 54 55 56 56 55 55 55 56 55 54 53 53 53 52 51 50 50 49 48 47 47 47 47 47 47 48 48 48 48 48 48 48 49 49 49 50 51 51 51 50 50 50 50 49 48
35 35 36 38 39 39 41 41 42 43 43 44 45 46 47 47 48 48 48 49 49 49 50 51 52 52 52 53 54 54 54 55 55 55 55 55 55 56 56 56 56 56 55 56 56 56 56 56 56 56 55 55 54 54 54 53 52 51 50 50 49 48 47 47 46 47 47 47 47 48 49 48 48 49 49 49 49 49 49 49 48 47 47 46 45 43 41
36 36 38 39 40 40 40 40 41 43 44 44 45 45 45 45 46 46 46 47 48 48 49 51 52 52 52 53 54 54 54 55 56 56 57 57 58 59 59 59 58 58 57 57 57 57 56 57 57 56 56 56 55 54 54 52 52 51 51 50 50 49 48 47 47 48 48 47 48 49 49 48 48 48 48 48 47 46 45 44 43 41 40 39 37 36 35
37 37 38 39 39 39 38 38 39 40 41 41 41 41 41 41 41 41 41 42 43 44 45 47 48 50 50 50 51 52 53 54 55 56 57 58 58 59 60 60 59 59 59 59 59 58 58 58 58 57 57 56 55 54 53 52 52 51 50 50 50 49 48 48 48 48 47 47 47 47 46 45 45 44 43 42 41 38 36 35 34 33 32 31 31 30 29
36 36 36 37 37 35 34 34 34 33 34 35 36 35 34 34 33 34 34 35 36 38 39 39 41 44 45 45 46 47 48 49 50 51 53 54 55 55 56 56 56 57 57 58 58 58 58 58 58 57 57 56 55 54 53 52 51 50 49 49 48 47 47 47 45 44 43 41 40 39 38 36 35 34 32 31 28 27 26 26 27 27 27 26 26 26 25
32 32 33 33 31 29 27 27 26 26 26 28 28 26 25 25 25 26 27 29 30 32 33 33 34 37 39 39 39 40 40 40 41 42 43 44 45 46 46 47 48 49 50 51 51 52 53 53 53 54 54 53 53 52 52 51 50 48 47 46 45 44 44 42 38 36 34 31 29 28 27 25 24 23 22 21 20 20 21 21 22 22 23 23 23 23 23
28 27 25 24 21 21 20 19 19 20 21 22 21 19 19 19 20 21 22 23 24 25 26 26 26 27 29 30 30 29 28 28 29 30 31 32 33 34 35 35 36 37 38 38 38 39 41 42 44 45 46 47 47 47 46 45 44 43 43 43 41 38 35 32 28 27 25 23 22 22 20 19 19 19 19 19 20 19 19 18 19 20 20 21 21 21 20
21 19 17 15 14 15 16 16 16 16 17 18 17 16 16 17 18 18 19 18 18 18 19 19 19 19 20 22 22 21 20 19 19 20 21 21 22 23 24 24 25 24 24 24 25 26 29 31 34 36 37 37 37 36 36 36 36 37 37 36 32 28 24 23 23 22 21 20 19 19 19 19 19 19 20 21 21 20 19 18 18 18 19 20 19 18 17
14 14 13 11 11 11 13 13 13 14 16 16 16 16 17 17 17 17 16 16 16 16 16 17 17 17 17 18 17 15 13 13 13 14 15 16 16 16 16 15 15 15 15 15 17 20 22 24 24 24 23 22 23 24 26 27 27 27 26 24 21 20 21 21 21 20 19 19 18 19 19 20 20 20 20 19 19 20 20 18 16 16 16 16 16 15 15
10 11 11 10 9 9 10 11 12 13 14 15 15 16 16 16 15 15 15 15 16 16 15 15 15 14 14 14 13 12 13 14 14 13 13 14 14 14 13 11 11 12 13 13 14 14 13 12 11 10 11 12 14 15 16 17 17 18 18 19 19 20 21 21 21 20 21 22 22 21 22 22 22 21 19 17 16 17 18 17 17 16 15 14 14 14 14
8 8 8 9 8 9 9 10 11 11 12 13 14 14 14 13 12 13 14 14 14 13 12 11 11 10 11 12 14 16 15 14 12 11 9 7 6 7 10 11 11 11 10 9 8 7 5 5 6 7 8 9 10 10 10 12 14 16 18 20 20 20 20 21 21 21 22 24 23 21 21 22 22 20 18 17 17 17 17 16 16 15 15 15 15 14 12
7 8 9 9 8 9 9 8 9 10 11 12 12 12 11 10 9 10 10 10 10 9 9 9 10 10 12 15 16 15 12 9 8 7 5 3 2 2 5 7 7 7 7 7 5 3 2 2 2 4 6 8 8 8 8 8 9 12 14 17 19 20 21 21 22 22 23 24 23 22 21 21 20 18 17 16 16 16 17 16 14 15 16 16 15 12 10
8 9 9 8 8 8 7 7 8 10 10 9 7 6 6 5 5 5 5 6 7 8 8 8 9 11 14 15 14 11 8 7 6 3 3 3 2 4 6 7 8 7 6 5 3 2 2 1 3 7 10 10 9 10 11 10 10 12 14 16 17 19 21 21 21 23 25 25 24 22 21 20 19 17 15 14 15 16 16 15 15 16 16 15 12 10 9
8 8 6 5 5 5 6 8 9 9 7 6 5 4 3 3 3 4 5 6 7 7 6 6 8 12 13 11 7 5 4 3 3 5 6 7 7 7 8 7 6 5 4 3 2 3 4 5 8 10 10 10 11 14 14 12 12 14 16 17 18 19 20 21 22 23 23 23 21 20 19 18 18 17 15 14 15 16 16 16 16 16 15 12 10 8 7
6 6 4 3 3 3 5 7 8 7 6 5 4 3 3 4 4 5 6 6 5 4 3 5 9 10 8 4 2 4 5 7 9 10 10 12 12 11 10 10 9 9 8 7 7 8 9 10 10 10 10 12 14 16 14 12 12 13 14 16 18 19 20 21 22 22 21 21 20 18 17 16 16 16 15 15 16 17 17 17 16 15 13 11 9 9 8
5 4 3 3 2 3 4 6 8 8 6 5 5 4 5 5 4 4 3 3 5 6 6 9 12 13 14 14 16 18 18 19 19 19 19 20 20 18 17 16 15 14 14 13 13 13 13 13 12 11 12 14 15 16 15 13 12 11 11 13 16 17 18 18 19 19 19 19 18 17 16 15 15 15 15 16 18 19 18 17 15 14 12 11 10 10 9
4 4 4 5 4 4 5 5 6 7 7 6 5 5 5 4 3 3 4 5 7 9 10 12 14 19 23 25 25 25 25 25 25 24 24 23 22 20 18 17 17 17 17 16 15 14 14 14 14 13 12 12 13 14 15 14 13 11 11 11 12 13 14 14 15 16 16 16 16 16 16 16 16 16 18 19 19 19 17 16 15 13 13 13 12 11 10
3 4 5 5 5 6 7 5 4 5 7 5 3 3 4 3 2 3 5 6 8 9 10 11 13 17 22 24 24 24 22 22 22 22 21 21 21 20 20 21 20 20 19 18 17 16 15 14 14 13 11 10 10 11 11 12 12 12 12 11 10 10 10 10 11 12 12 13 14 15 16 17 18 19 20 20 19 18 17 16 15 15 15 14 13 12 11
1 2 3 4 5 6 7 6 4 4 4 4 2 3 4 4 3 2 3 5 6 7 7 9 12 13 17 21 23 23 21 19 18 18 18 18 19 19 20 21 21 21 20 20 19 18 16 15 14 13 11 9 8 7 7 7 9 10 10 11 12 12 12 11 12 13 13 15 16 17 19 20 21 21 21 19 18 17 17 17 16 16 16 15 13 12 11
3 2 2 3 4 6 7 6 4 2 2 2 2 2 4 4 4 3 2 2 4 5 6 8 11 13 13 17 21 22 21 19 17 15 14 13 13 13 14 15 16 17 18 18 18 18 17 16 15 14 12 10 8 7 6 5 6 7 8 8 9 10 11 12 14 15 17 18 19 20 21 21 21 20 19 18 18 18 18 17 17 17 16 14 13 12 10
4 3 2 3 4 6 5 4 2 1 1 0 1 1 3 4 4 2 1 2 3 3 4 7 10 12 12 14 17 19 20 19 18 15 13 11 9 8 8 8 9 11 13 15 16 17 17 16 15 15 14 13 11 10 9 8 7 6 5 5 6 6 8 10 13 15 17 18 18 18 18 18 18 18 18 17 18 18 18 17 17 16 15 13 12 11 10
5 4 3 4 4 4 3 1 1 1 1 1 1 1 2 3 3 3 2 2 1 1 2 4 7 8 9 10 12 14 15 16 17 17 15 13 11 10 9 8 8 8 9 11 13 14 14 14 13 14 14 14 13 12 11 9 8 7 6 5 5 5 7 8 10 12 13 14 14 14 15 15 16 16 17 17 17 17 17 17 16 15 14 13 13 11 10
7 6 5 5 5 4 2 1 2 2 1 1 1 1 2 2 2 3 3 2 1 1 2 3 3 4 5 6 8 10 12 13 14 15 16 15 14 13 12 11 10 8 7 6 6 8 9 10 10 10 10 10 10 10 10 9 8 7 6 5 5 6 6 8 9 10 11 12 12 13 13 14 15 15 16 16 16 16 16 16 15 14 14 13 13 12 11
8 8 8 7 6 4 3 3 4 3 1 1 1 1 1 2 3 3 3 3 3 3 3 2 2 3 3 3 5 6 7 9 10 11 12 12 13 14 13 13 12 11 10 9 7 4 4 4 4 4 5 5 4 3 4 5 6 6 6 6 6 6 6 7 8 9 10 11 12 12 13 14 14 15 15 15 15 15 15 15 14 14 13 13 13 13 12
10 9 9 8 7 6 4 4 5 4 2 2 3 2 3 5 6 6 5 4 4 4 3 3 2 2 2 3 4 4 4 5 5 6 6 7 9 11 12 12 12 12 11 11 11 10 9 7 6 5 4 4 4 4 3 3 3 3 4 5 6 6 6 7 8 9 10 11 11 12 13 14 14 15 15 15 15 15 15 15 15 14 14 13 13 13 13
11 10 9 8 8 7 6 5 5 4 4 5 6 5 6 8 7 7 6 5 5 4 4 3 2 2 2 2 3 3 3 3 3 3 3 4 5 7 9 10 11 10 10 10 11 12 12 11 10 9 9 8 8 8 7 6 5 5 5 6 7 7 7 7 8 9 10 11 12 12 13 14 14 15 15 15 15 16 16 15 15 14 14 14 14 14 14
13 11 10 10 9 9 9 8 6 5 6 8 9 8 8 8 6 5 5 5 4 4 4 5 4 3 3 3 3 2 2 1 1 2 2 3 3 4 5 7 9 10 11 11 11 12 12 13 14 14 13 12 12 11 10 10 9 8 9 9 10 10 10 9 9 9 10 11 12 13 14 14 15 15 15 15 15 15 16 15 15 15 15 14 14 15 15
16 13 12 12 12 12 12 12 9 7 8 10 11 10 9 7 6 4 4 3 2 2 2 3 3 3 4 4 4 4 4 3 2 2 2 2 3 4 5 5 6 7 9 10 11 12 12 13 14 15 16 16 15 15 14 14 13 13 12 12 13 14 14 14 13 12 11 12 13 14 15 15 16 16 16 16 16 16 16 16 16 16 16 16 16 16 16
17 15 14 15 15 15 15 15 12 10 10 11 11 9 8 7 6 4 4 3 2 2 1 0 0 2 3 4 4 5 6 6 6 6 6 6 6 7 7 7 7 8 8 9 10 11 12 13 14 15 16 17 18 18 18 18 18 18 17 17 16 16 17 17 17 16 15 16 17 17 17 17 18 18 18 18 18 17 17 17 17 17 17 17 17 17 17
20 19 18 17 16 17 18 18 16 14 13 13 12 10 9 8 7 6 5 5 4 3 3 3 3 3 4 5 6 7 8 9 9 10 11 11 12 12 12 12 12 12 12 12 12 12 12 13 13 14 15 16 17 17 18 19 19 20 20 21 21 20 20 20 20 20 20 20 20 20 20 20 20 21 21 21 21 20 20 19 19 19 18 19 18 18 18
21 22 22 20 19 19 19 19 18 17 16 15 14 13 12 11 10 9 8 7 6 6 6 6 6 7 8 8 9 10 10 11 12 13 14 15 16 17 17 18 17 17 17 17 17 17 17 16 16 16 16 16 16 16 17 17 18 19 20 21 22 23 23 23 23 23 23 23 23 23 23 23 23 23 23 24 24 24 23 22 21 21 20 20 20 19 19
22 23 23 22 22 21 21 21 19 18 18 17 16 15 14 13 12 11 10 10 9 9 9 9 10 10 11 11 12 13 14 15 16 17 17 18 19 20 21 22 22 23 23 22 22 22 22 22 22 21 21 21 20 20 20 19 19 20 20 21 22 23 24 24 25 25 25 25 25 25 25 26 26 26 26 26 26 26 26 25 24 23 22 22 21 21 20
24 24 24 24 24 24 23 22 21 20 20 19 18 17 16 15 15 14 13 12 12 11 11 11 12 12 13 13 14 16 17 18 19 20 21 21 22 22 23 24 25 26 27 27 27 27 27 27 27 27 27 26 26 26 25 24 24 23 23 23 23 23 24 25 25 26 27 27 27 27 27 27 27 28 27 27 27 27 27 26 26 25 25 24 23 22 22
Wind_Direction
266 265 265 264 264 264 264 265 265 264 263 263 263 263 263 261 259 260 257 253 254 255 256 259 263 262 261 261 264 267 267 266 267 267 266 264 263 262 262 260 258 257 256 255 254 254 255 255 255 255 255 255 256 255 254 253 253 255 257 258 258 258 257 256 256 259 260 260 259 258 253 252 255 257 258 261 261 258 257 260 263 263 263 262 262 262 263
264 264 264 264 265 266 266 266 267 267 266 265 265 266 266 262 260 260 258 255 252 251 252 255 258 261 261 261 263 265 264 265 265 265 265 264 263 263 262 260 259 259 258 257 257 257 257 258 258 257 258 258 258 257 256 255 254 254 255 257 259 260 260 258 255 255 255 256 256 256 254 252 253 254 255 257 258 259 260 264 267 267 265 263 262 261 262
264 264 264 265 266 267 266 265 266 267 268 267 266 267 267 266 264 261 259 257 254 251 252 253 254 256 259 260 261 262 262 263 263 261 261 262 262 261 260 260 259 258 257 258 259 260 259 259 258 259 259 260 260 259 259 258 257 256 255 255 257 260 263 262 260 259 258 257 256 256 255 254 253 253 253 254 256 258 261 263 266 267 267 267 266 264 264
265 267 268 269 268 266 265 265 265 267 269 269 269 267 266 266 265 262 259 258 257 256 255 254 254 255 257 258 260 260 262 262 261 260 260 260 261 259 258 258 259 259 259 259 260 260 261 261 260 260 260 261 260 260 259 259 259 258 256 254 252 253 256 258 260 261 261 259 259 258 258 257 257 257 257 257 257 259 261 263 263 264 266 267 267 267 267
268 270 271 271 270 269 268 270 271 270 269 268 267 266 264 263 263 262 260 259 258 258 257 256 255 257 258 258 257 256 257 257 257 258 259 259 259 259 258 258 259 261 263 263 262 264 264 263 262 262 261 261 260 260 259 258 258 257 257 256 254 252 253 254 256 258 259 260 260 261 262 263 263 263 264 265 265 265 266 267 267 267 266 266 267 268 268
272 272 271 269 269 270 272 273 272 270 268 267 266 266 265 264 262 262 263 262 260 258 258 258 258 257 257 257 256 254 255 255 256 256 257 258 259 259 259 259 260 261 264 266 268 269 267 265 263 262 260 260 259 259 258 258 257 257 256 257 256 256 255 255 256 257 257 258 259 260 262 264 265 265 266 267 268 268 269 269 269 269 269 268 269 269 269
272 272 271 269 269 271 274 273 271 268 267 268 268 268 267 266 265 264 263 263 262 260 259 259 259 259 258 257 257 256 255 255 256 257 257 257 257 257 259 261 263 264 266 267 268 268 266 265 264 262 261 260 259 258 257 257 257 256 256 256 256 257 257 257 258 258 258 258 259 260 261 263 264 265 265 266 267 267 268 268 269 269 269 269 270 270 271
269 270 270 270 271 272 272 271 270 270 270 271 271 270 268 267 267 265 264 263 263 263 262 261 261 261 260 259 258 257 256 257 257 256 255 254 254 256 259 262 264 266 266 266 266 267 266 265 264 263 263 262 261 260 259 258 257 257 256 256 256 257 257 258 259 259 260 260 260 261 262 263 264 264 265 265 266 266 267 267 268 268 269 269 269 270 270
268 269 269 270 272 272 271 271 272 273 274 274 272 271 270 269 268 267 266 265 265 264 264 263 263 263 262 261 260 258 256 255 254 253 252 253 254 256 259 262 264 266 266 266 267 267 266 265 265 264 263 263 262 262 261 260 260 259 258 258 258 258 258 258 258 259 260 261 262 262 263 263 264 264 265 265 266 266 267 267 267 267 267 268 269 269 269
268 269 270 271 272 272 273 273 273 274 274 273 272 273 272 271 270 269 268 267 266 265 264 264 264 264 263 261 259 258 255 252 251 251 251 252 254 256 258 261 263 264 265 265 266 265 265 264 264 264 264 264 263 263 262 262 262 261 261 261 261 261 260 260 259 259 259 260 261 262 263 263 264 264 265 265 265 266 266 267 267 267 267 267 267 268 268
269 269 270 271 272 272 272 272 272 273 273 272 272 271 270 270 270 270 269 268 267 266 266 266 265 264 262 259 258 258 256 254 253 252 251 252 255 257 258 260 261 262 263 264 265 265 265 265 265 265 265 265 264 264 264 263 263 263 263 263 263 263 263 263 262 262 261 261 261 261 261 262 263 263 264 265 265 266 266 266 266 266 267 266 266 267 268
270 270 271 272 272 271 271 271 271 272 272 271 270 268 268 270 270 269 269 268 268 267 268 267 266 263 260 256 254 254 255 256 256 254 253 254 256 258 258 259 261 263 264 265 265 265 265 265 265 264 264 264 264 264 264 264 263 263 263 263 263 264 264 264 264 264 263 263 262 262 262 262 262 262 263 264 264 264 265 265 266 266 267 267 267 267 267
270 270 271 270 269 269 270 271 271 271 270 270 269 267 268 270 270 268 267 267 267 267 266 265 264 262 258 255 254 254 255 256 258 258 257 256 257 258 259 261 263 263 263 263 264 264 264 264 264 264 263 264 264 264 263 263 263 263 263 262 263 263 263 264 264 264 264 264 263 263 262 262 262 262 262 262 262 263 263 264 264 265 266 266 266 266 267
268 267 267 267 266 267 270 272 271 271 270 268 267 267 268 269 268 267 266 266 266 265 263 261 260 258 257 256 255 255 254 255 256 258 258 258 257 258 260 261 262 262 262 262 262 262 263 263 264 264 264 264 264 264 264 264 264 263 263 262 262 262 262 263 263 263 263 264 264 264 263 262 261 261 261 261 261 261 262 262 263 263 264 265 265 265 265
268 266 266 265 266 268 272 272 272 271 269 267 266 267 268 269 269 268 267 265 265 264 263 261 259 258 257 256 256 255 255 254 254 255 257 258 259 260 261 261 261 262 262 262 262 262 263 263 264 264 264 264 264 264 264 264 264 263 263 262 262 262 262 261 261 261 261 262 262 262 262 262 262 261 260 260 260 260 261 262 262 262 263 263 264 264 265
266 268 269 269 269 271 272 270 269 269 268 268 269 270 270 270 270 269 268 266 265 265 265 264 264 263 261 259 259 259 259 258 257 257 258 260 260 261 261 261 261 262 262 262 262 262 262 263 263 263 264 264 264 264 264 264 264 264 263 262 262 261 261 261 261 260 261 261 261 261 261 261 262 261 260 259 259 260 261 261 262 262 263 263 264 264 265
266 268 269 269 270 271 270 269 269 269 269 271 272 272 271 270 268 268 269 269 268 267 267 267 266 265 264 263 263 262 261 261 260 259 259 260 261 262 262 261 261 261 261 261 261 261 262 262 262 263 263 264 264 264 264 264 264 264 263 262 262 261 260 261 261 262 262 262 262 262 261 261 261 261 260 259 259 260 259 259 261 263 263 264 264 265 265
267 268 268 268 269 269 269 270 270 270 271 273 273 272 271 270 269 269 269 269 269 269 268 268 267 266 265 264 264 264 263 262 261 260 259 259 260 260 261 261 262 262 262 263 262 262 262 262 263 263 263 263 264 264 264 264 263 263 263 262 262 262 262 262 262 262 262 262 262 262 262 262 261 261 261 261 261 260 260 260 262 263 263 264 264 264 264
268 269 270 270 271 270 269 268 269 270 271 271 271 271 271 271 271 272 271 271 271 271 270 270 270 270 269 268 267 267 266 266 264 263 262 261 260 260 260 260 261 261 262 262 262 262 262 262 263 263 263 263 263 263 264 264 264 264 264 264 263 263 263 263 263 263 263 263 263 263 264 264 263 263 263 262 262 261 262 262 263 263 263 264 263 263 264
271 271 270 270 271 271 271 270 270 270 270 270 270 271 272 272 272 272 272 272 272 272 272 272 271 271 271 270 269 269 268 268 267 267 266 265 264 263 262 261 261 260 260 260 259 260 260 260 260 261 261 262 262 263 263 263 264 264 264 264 264 264 263 263 263 263 263 263 263 264 264 264 264 263 263 263 262 262 262 263 263 264 264 264 264 265 265
274 274 273 272 272 272 273 273 272 271 270 271 271 271 272 272 273 273 273 273 273 272 272 271 271 270 269 269 269 268 268 268 268 268 267 267 266 265 264 263 262 262 261 260 260 260 260 260 260 260 261 261 261 261 262 262 263 264 265 265 265 265 264 264 264 265 265 264 265 265 264 264 264 264 264 264 263 262 262 263 263 264 264 265 265 264 263
277 276 275 275 275 274 274 273 272 272 272 273 273 273 273 273 274 274 274 274 274 273 273 272 271 271 270 269 269 268 268 267 267 267 266 266 265 265 264 264 264 264 263 263 262 262 262 262 262 262 261 261 261 261 261 262 262 263 264 265 265 265 266 266 266 266 266 267 267 266 266 266 266 266 265 265 264 263 262 262 262 262 262 262 260 257 255
279 278 277 277 277 276 275 274 274 274 275 275 275 275 275 275 275 274 274 273 273 273 273 274 274 273 272 272 271 270 269 268 267 266 265 264 264 264 264 265 265 264 264 263 263 262 261 261 261 261 261 262 262 262 262 261 261 261 261 262 263 264 265 265 265 265 266 266 266 267 267 267 266 264 263 262 261 259 258 257 256 254 253 251 248 245 245
283 282 281 280 280 280 279 278 278 278 277 277 276 277 278 278 278 278 277 277 276 275 275 276 277 276 275 273 272 271 270 269 268 267 267 266 266 265 265 265 265 264 263 263 262 262 261 261 261 261 261 261 261 261 261 261 260 260 261 261 262 263 264 264 265 265 264 264 263 263 262 261 260 258 255 253 251 248 246 244 242 240 237 235 234 235 240
287 286 285 285 285 283 282 281 280 279 278 278 280 283 284 284 283 282 282 282 281 281 280 279 279 278 277 276 274 273 271 270 269 268 268 267 266 265 264 263 263 262 262 261 261 261 261 260 260 259 259 259 259 258 259 259 260 260 260 261 261 261 261 261 260 259 257 255 252 251 250 248 244 241 236 232 231 232 232 231 229 226 223 223 226 230 236
290 290 289 289 287 285 282 278 275 274 276 281 286 288 285 281 280 280 282 284 286 286 286 285 283 282 281 280 278 275 272 269 266 266 265 264 264 263 263 262 261 261 261 262 261 261 260 260 259 257 257 256 256 256 257 258 258 257 257 257 257 256 254 250 246 243 242 239 235 235 234 229 224 223 223 220 217 216 215 214 216 217 219 222 227 232 236
294 293 292 289 285 282 280 276 275 276 280 284 286 285 281 279 279 279 281 286 291 294 294 293 291 288 284 283 282 280 277 272 267 266 266 266 266 266 266 265 265 264 264 263 261 259 257 256 255 255 255 255 254 253 251 250 250 249 249 249 247 242 235 230 227 226 225 224 223 223 223 221 220 221 220 218 213 208 205 207 215 222 226 230 236 239 240
299 300 299 294 285 280 281 282 282 281 280 282 284 283 281 280 278 278 282 289 293 294 293 292 291 288 284 284 285 286 286 284 281 278 275 271 269 267 267 268 267 263 259 256 254 253 253 254 255 254 252 246 241 237 236 236 237 237 237 234 227 217 213 215 217 216 214 217 222 223 221 218 216 213 211 212 214 211 209 213 222 225 225 228 231 230 226
296 298 299 297 293 289 285 282 278 276 278 282 285 286 287 286 282 280 283 289 292 292 291 289 288 286 285 287 293 298 298 295 291 283 275 271 269 265 261 258 255 252 250 249 247 246 249 249 244 233 222 217 217 220 224 227 227 225 222 217 213 210 209 212 214 213 213 215 220 222 217 211 208 208 209 211 213 212 213 218 223 220 217 219 219 214 210
302 305 307 307 303 294 286 282 283 286 290 291 290 289 291 292 286 280 281 288 291 289 286 287 291 295 301 307 309 305 298 291 289 289 290 294 290 269 249 240 238 238 233 224 218 218 218 210 202 198 200 202 206 210 216 222 224 223 220 216 213 210 208 210 212 212 211 211 211 210 206 202 202 206 209 209 211 215 218 218 216 214 216 218 214 205 198
317 319 317 314 305 293 289 294 302 305 305 303 299 296 292 290 287 284 285 290 293 292 298 310 319 323 324 319 311 302 293 290 297 310 326 353 350 243 214 205 200 192 180 173 173 178 193 206 193 168 166 171 177 180 181 185 193 199 200 200 199 199 201 205 208 206 202 197 194 192 193 193 195 197 200 205 213 216 211 208 211 216 217 213 203 192 187
315 314 314 309 300 297 305 322 330 327 324 323 323 318 305 297 300 306 311 315 321 329 340 345 341 334 327 316 305 300 302 309 324 359 73 104 132 153 152 151 154 156 157 162 181 219 243 202 130 136 144 149 150 148 141 137 144 156 164 171 180 188 191 193 192 189 185 183 184 186 188 190 193 197 202 208 211 207 203 208 217 216 206 194 185 181 184
313 317 317 307 300 308 328 343 348 348 345 344 346 349 353 7 17 10 0 353 351 357 0 354 344 337 327 314 302 308 323 343 44 87 115 136 150 156 153 153 158 157 152 160 192 209 200 173 153 147 145 142 144 144 138 129 130 140 148 157 165 171 174 174 173 174 178 182 186 188 188 192 198 202 203 202 204 208 215 218 213 200 185 175 173 178 186
316 322 317 310 331 352 349 349 358 9 11 1 359 14 38 43 30 16 7 0 4 19 16 358 1 2 351 340 47 69 76 94 102 108 120 128 129 128 129 130 133 134 135 142 149 152 152 153 152 147 140 140 147 150 143 133 131 136 143 153 159 162 166 169 171 173 178 183 187 190 195 200 203 202 201 205 213 219 219 209 192 178 170 170 176 184 190
321 319 289 274 307 341 337 346 1 11 14 12 16 29 39 37 23 20 29 25 27 42 40 26 38 63 83 87 85 89 96 101 104 108 111 112 113 116 121 125 128 130 130 131 130 129 129 130 130 132 133 140 149 152 148 146 148 148 147 150 156 160 165 170 173 177 182 185 190 196 202 202 201 203 212 219 218 211 199 184 172 168 171 177 184 188 185
328 314 275 257 272 298 312 332 350 355 358 6 10 10 20 38 56 78 88 67 48 50 47 39 54 84 97 93 88 91 96 99 103 107 109 111 115 119 122 124 125 124 123 120 118 118 119 117 117 120 127 136 148 155 156 157 162 167 166 160 156 157 161 166 171 178 184 189 193 198 200 200 204 211 215 210 201 189 177 170 170 174 180 185 187 183 176
322 292 265 257 273 293 302 306 310 323 338 351 0 3 13 32 55 79 90 81 63 57 52 45 58 88 104 103 96 95 96 98 101 103 104 107 111 112 112 112 111 110 110 109 107 105 104 104 106 110 116 125 139 154 162 167 171 178 184 185 180 176 175 175 178 183 189 195 201 204 205 206 207 206 201 191 182 175 173 175 178 183 185 186 183 178 175
265 260 260 272 290 295 298 298 295 304 325 344 16 35 27 22 22 37 74 87 80 72 67 61 65 85 109 117 115 111 107 104 102 99 98 99 101 101 102 104 103 101 101 101 99 97 96 98 101 103 104 107 116 130 149 168 176 182 188 194 196 196 198 199 199 201 204 210 213 211 207 203 198 193 187 181 177 178 182 184 185 187 187 184 181 179 179
215 234 273 311 310 300 298 301 301 296 323 344 17 43 35 30 30 26 25 56 74 81 86 82 77 82 104 125 132 131 126 122 117 112 106 103 102 98 95 95 96 98 98 96 93 90 90 92 94 96 96 96 99 107 118 135 158 175 186 194 200 206 211 214 215 213 210 209 207 202 197 193 189 185 181 180 182 187 190 190 189 188 187 184 184 185 184
214 230 268 304 312 307 308 314 308 255 205 54 38 52 44 38 44 50 31 25 49 73 100 105 96 88 96 117 134 140 141 140 139 136 131 127 127 127 119 110 105 100 97 96 94 90 87 86 87 89 90 89 90 95 103 110 120 136 152 167 181 193 200 206 207 205 201 197 194 190 188 186 185 183 184 187 192 195 195 192 191 190 188 188 192 195 194
212 219 248 273 289 297 306 321 267 211 165 127 73 55 49 38 42 51 46 25 22 48 140 133 118 104 99 109 125 136 141 145 149 152 152 151 147 144 143 142 134 116 100 96 94 92 92 93 92 88 86 83 82 85 92 98 108 117 122 129 148 167 178 187 191 191 188 186 185 185 186 187 188 190 193 197 200 201 198 196 195 194 193 197 202 206 208
228 226 242 256 264 270 269 221 193 181 147 131 106 73 66 57 55 59 49 37 63 116 156 167 156 138 123 119 125 131 135 140 146 153 158 159 156 152 153 159 161 154 141 122 103 93 94 97 95 89 84 78 72 75 82 87 99 117 129 138 155 169 177 183 188 188 187 187 188 191 194 196 198 200 204 206 208 208 206 204 203 202 203 207 212 217 221
243 235 240 246 247 251 244 198 177 168 160 190 206 157 114 110 105 96 75 59 72 93 108 130 164 181 176 160 150 146 143 144 147 149 153 158 159 158 160 165 170 175 178 179 181 172 144 122 111 101 90 75 59 64 84 92 101 118 133 147 165 179 186 191 195 196 196 196 197 201 204 207 208 210 213 215 215 215 215 214 214 214 215 218 222 226 230
246 237 235 236 236 240 235 193 164 160 190 225 217 188 150 133 121 109 97 86 81 80 80 85 111 140 154 160 166 168 168 168 167 165 166 169 170 169 168 170 173 177 180 184 188 189 186 183 188 191 184 184 203 213 198 163 151 158 163 166 174 184 196 204 207 206 204 205 208 211 214 216 219 221 222 222 222 222 223 224 226 226 227 230 233 237 240
243 238 233 230 229 233 230 203 173 174 206 211 199 180 159 144 131 118 110 104 96 86 79 76 82 99 110 120 135 149 165 179 192 201 210 209 196 188 187 187 188 189 192 194 194 194 194 197 202 208 213 217 221 223 221 217 216 218 216 210 206 204 206 213 220 220 217 215 216 218 220 222 225 228 229 230 230 231 231 232 234 236 238 240 243 246 249
238 240 237 231 227 229 226 210 191 192 208 205 193 178 166 157 148 137 130 123 114 104 93 81 71 68 71 72 72 78 91 124 165 201 228 243 241 229 218 211 208 209 213 216 217 215 213 211 212 216 224 232 237 238 237 238 239 238 235 233 231 227 221 218 221 229 234 233 231 230 230 230 230 231 234 236 237 239 240 241 241 242 243 245 248 251 254
231 234 236 234 230 229 227 218 205 203 212 207 193 179 172 170 169 167 161 156 150 135 112 85 64 49 38 29 24 20 14 9 2 344 302 275 269 269 266 257 243 234 232 235 238 240 237 233 229 229 231 235 239 242 244 246 248 249 246 242 239 237 234 229 223 224 232 240 243 242 243 241 238 237 237 239 241 243 246 247 248 249 249 250 252 254 256
223 223 228 232 231 230 228 221 211 204 205 201 191 183 183 186 186 191 204 218 222 220 217 225 13 20 13 6 359 352 346 338 328 319 310 299 288 281 279 278 276 271 265 260 257 256 254 251 247 244 242 242 243 244 246 248 250 252 251 247 243 240 240 239 235 231 233 237 240 241 243 245 246 244 243 242 242 244 246 249 252 255 256 256 257 258 259
220 217 221 227 228 227 225 220 210 201 196 195 194 195 199 202 201 205 219 231 239 246 253 262 279 298 309 315 319 323 323 319 315 311 306 300 294 289 284 281 280 280 280 278 276 273 270 267 263 259 255 252 250 248 248 249 250 250 250 250 247 244 243 243 243 241 241 241 241 240 240 241 244 245 246 245 245 245 246 248 251 254 257 259 260 262 262
222 218 219 223 225 224 221 217 210 203 200 202 205 207 208 208 208 209 213 221 232 245 257 267 277 285 292 297 303 307 309 309 309 309 307 304 300 295 290 285 282 279 277 277 278 278 277 276 275 273 271 269 265 261 258 255 252 250 249 249 249 248 247 247 247 246 246 246 246 244 242 241 240 241 243 245 246 246 246 247 249 251 254 257 258 260 262
225 221 219 221 223 223 221 217 212 210 211 214 216 217 217 216 213 211 213 219 230 242 255 266 274 281 287 292 298 301 304 305 306 307 308 307 305 302 298 294 290 285 281 278 276 276 276 276 276 276 275 275 274 272 270 266 263 259 256 253 251 250 250 249 248 248 249 248 248 246 245 244 243 242 242 243 245 246 247 248 248 250 252 254 256 258 260
228 225 222 221 222 223 223 220 216 216 218 220 221 222 223 224 222 219 219 223 231 240 250 260 268 275 283 290 296 300 303 305 306 309 310 309 308 307 305 303 300 295 290 285 281 278 276 275 274 274 274 273 273 272 271 270 268 266 263 260 258 257 255 253 252 251 250 250 249 248 247 246 245 245 244 244 245 247 248 249 249 250 250 252 254 256 257
Height
5665 5665 5666 5666 5665 5665 5665 5665 5666 5667 5667 5667 5667 5667 5668 5669 5666 5667 5670 5669 5668 5669 5668 5666 5664 5664 5665 5665 5664 5664 5663 5663 5663 5663 5663 5663 5663 5663 5663 5664 5665 5666 5668 5669 5670 5671 5671 5672 5672 5673 5673 5674 5675 5675 5676 5676 5677 5677 5677 5677 5678 5679 5680 5682 5682 5683 5683 5683 5684 5685 5686 5687 5688 5688 5689 5690 5689 5689 5690 5691 5691 5690 5691 5692 5693 5694 5696
5658 5659 5660 5659 5659 5658 5658 5658 5658 5659 5659 5660 5660 5659 5661 5661 5660 5661 5662 5661 5662 5663 5662 5662 5661 5660 5659 5659 5659 5659 5658 5658 5658 5658 5657 5656 5656 5657 5656 5657 5658 5659 5661 5663 5664 5665 5665 5666 5666 5667 5667 5668 5669 5670 5670 5671 5671 5672 5672 5672 5672 5673 5675 5676 5677 5677 5678 5678 5679 5680 5680 5681 5682 5682 5683 5684 5684 5684 5684 5685 5684 5684 5685 5686 5688 5689 5690
5651 5653 5653 5653 5653 5652 5651 5652 5652 5652 5652 5652 5653 5653 5653 5654 5654 5654 5654 5653 5654 5656 5656 5656 5656 5655 5654 5653 5654 5654 5653 5653 5653 5652 5652 5651 5651 5651 5650 5650 5652 5653 5654 5656 5657 5658 5659 5659 5660 5661 5661 5662 5663 5664 5665 5665 5666 5666 5667 5667 5668 5668 5669 5669 5670 5671 5672 5672 5673 5674 5675 5675 5676 5676 5677 5678 5678 5678 5678 5678 5678 5678 5679 5681 5682 5683 5683
5644 5647 5646 5646 5646 5644 5643 5645 5646 5646 5646 5646 5646 5647 5647 5647 5646 5647 5647 5646 5647 5649 5649 5649 5649 5649 5648 5648 5649 5649 5648 5647 5646 5646 5646 5646 5646 5645 5644 5644 5646 5647 5648 5649 5650 5651 5652 5653 5654 5655 5655 5655 5656 5658 5658 5658 5659 5660 5660 5661 5662 5663 5663 5663 5664 5664 5665 5666 5667 5667 5668 5669 5669 5670 5670 5671 5672 5672 5673 5673 5673 5673 5674 5676 5677 5677 5677
5638 5641 5640 5639 5637 5635 5636 5639 5640 5639 5639 5639 5639 5640 5641 5641 5640 5639 5639 5640 5642 5642 5641 5641 5642 5642 5642 5642 5642 5642 5641 5640 5640 5640 5640 5640 5640 5639 5638 5639 5641 5641 5641 5642 5644 5645 5646 5646 5647 5648 5648 5649 5650 5651 5651 5652 5653 5653 5654 5655 5656 5656 5657 5657 5658 5658 5659 5659 5660 5661 5662 5662 5662 5663 5663 5664 5665 5666 5666 5666 5666 5667 5668 5670 5671 5671 5671
5631 5634 5634 5632 5629 5628 5631 5633 5632 5631 5632 5633 5633 5633 5633 5634 5633 5633 5633 5634 5635 5635 5633 5634 5635 5634 5635 5635 5634 5634 5634 5634 5634 5635 5635 5634 5633 5632 5631 5632 5633 5634 5635 5637 5638 5639 5639 5639 5640 5641 5641 5642 5643 5643 5644 5645 5646 5646 5647 5648 5648 5649 5650 5650 5651 5652 5652 5653 5654 5654 5655 5656 5656 5657 5657 5657 5658 5659 5659 5660 5660 5661 5661 5663 5664 5664 5665
5625 5626 5625 5623 5622 5623 5626 5626 5624 5623 5626 5626 5626 5626 5626 5626 5626 5627 5627 5626 5627 5627 5626 5626 5627 5627 5628 5628 5627 5627 5627 5627 5628 5629 5629 5628 5626 5625 5625 5625 5625 5627 5630 5631 5631 5631 5631 5632 5632 5633 5633 5635 5636 5636 5637 5638 5639 5639 5640 5641 5641 5642 5642 5643 5644 5645 5645 5646 5647 5648 5648 5649 5649 5650 5650 5651 5652 5652 5653 5653 5654 5655 5655 5655 5657 5657 5658
5620 5619 5618 5616 5617 5619 5619 5618 5616 5616 5619 5620 5618 5618 5619 5619 5619 5620 5620 5620 5620 5619 5619 5619 5620 5620 5620 5620 5619 5619 5620 5621 5622 5622 5621 5619 5618 5618 5618 5618 5618 5621 5623 5622 5622 5624 5624 5624 5625 5625 5626 5627 5628 5629 5630 5631 5632 5633 5634 5634 5635 5635 5636 5636 5637 5638 5638 5639 5640 5640 5641 5642 5642 5642 5643 5644 5644 5645 5646 5647 5647 5648 5648 5648 5649 5650 5651
5614 5613 5612 5611 5611 5612 5612 5611 5610 5610 5613 5612 5610 5610 5610 5611 5612 5612 5612 5612 5613 5613 5612 5612 5613 5613 5613 5613 5611 5610 5613 5615 5614 5612 5612 5611 5611 5612 5612 5611 5612 5614 5615 5614 5615 5617 5617 5617 5617 5618 5619 5620 5621 5622 5623 5624 5625 5626 5626 5627 5628 5629 5629 5630 5631 5632 5632 5632 5633 5633 5634 5634 5635 5635 5635 5636 5637 5637 5638 5639 5640 5640 5641 5641 5641 5642 5644
5608 5607 5606 5605 5605 5605 5605 5605 5604 5605 5606 5605 5604 5603 5603 5603 5604 5605 5605 5605 5604 5604 5605 5605 5606 5607 5607 5606 5603 5602 5605 5606 5604 5604 5605 5605 5605 5604 5604 5604 5605 5607 5607 5607 5608 5609 5609 5609 5610 5610 5611 5612 5613 5614 5615 5616 5617 5618 5619 5620 5621 5621 5622 5623 5624 5625 5625 5626 5626 5626 5627 5627 5627 5628 5628 5628 5629 5630 5631 5632 5632 5632 5634 5635 5634 5634 5636
5601 5601 5600 5600 5599 5599 5599 5599 5598 5599 5599 5598 5598 5597 5595 5596 5598 5598 5597 5597 5596 5596 5597 5598 5600 5600 5601 5599 5595 5595 5597 5596 5595 5598 5598 5597 5597 5597 5597 5598 5598 5599 5600 5601 5600 5601 5601 5602 5602 5603 5603 5604 5605 5606 5607 5608 5609 5610 5611 5612 5613 5613 5614 5615 5616 5617 5618 5619 5619 5619 5620 5620 5620 5621 5621 5621 5622 5623 5623 5624 5624 5625 5626 5627 5627 5628 5629
5596 5595 5594 5594 5593 5591 5591 5593 5592 5592 5592 5592 5591 5590 5588 5589 5591 5591 5590 5589 5589 5589 5590 5591 5592 5593 5592 5589 5586 5588 5589 5588 5588 5591 5591 5590 5590 5591 5590 5590 5591 5592 5593 5593 5593 5593 5594 5595 5595 5595 5596 5596 5597 5598 5599 5600 5602 5603 5604 5605 5605 5606 5606 5607 5608 5609 5610 5611 5611 5612 5613 5613 5614 5614 5615 5615 5615 5616 5616 5617 5617 5618 5619 5620 5621 5622 5622
5590 5589 5588 5589 5587 5583 5584 5586 5585 5585 5587 5586 5584 5583 5581 5582 5584 5584 5583 5582 5582 5582 5583 5583 5584 5585 5584 5581 5579 5581 5583 5582 5582 5584 5584 5584 5584 5583 5583 5583 5584 5586 5586 5586 5586 5586 5587 5587 5587 5587 5588 5589 5590 5591 5592 5593 5594 5595 5596 5597 5598 5598 5599 5600 5600 5601 5602 5603 5603 5604 5605 5605 5606 5607 5608 5608 5608 5608 5609 5610 5611 5612 5612 5612 5613 5615 5615
5584 5584 5582 5582 5580 5578 5578 5579 5578 5579 5580 5578 5576 5575 5575 5575 5576 5576 5575 5575 5574 5575 5575 5576 5576 5576 5575 5574 5573 5573 5575 5576 5575 5575 5576 5576 5576 5576 5576 5576 5577 5578 5579 5579 5579 5579 5579 5579 5580 5580 5581 5581 5582 5583 5584 5585 5587 5588 5589 5590 5590 5591 5592 5592 5593 5593 5594 5595 5595 5596 5597 5598 5599 5600 5600 5601 5601 5601 5602 5603 5604 5605 5605 5605 5606 5607 5608
5576 5576 5575 5574 5573 5573 5573 5573 5571 5571 5571 5569 5568 5569 5569 5568 5568 5568 5568 5568 5567 5566 5567 5567 5567 5568 5568 5567 5566 5566 5567 5568 5568 5567 5567 5567 5568 5568 5569 5569 5569 5570 5571 5572 5572 5572 5572 5572 5572 5572 5573 5574 5575 5576 5577 5578 5579 5580 5581 5582 5583 5584 5585 5585 5586 5587 5587 5588 5589 5589 5590 5590 5591 5592 5593 5594 5593 5593 5595 5596 5596 5597 5598 5598 5599 5600 5601
5568 5569 5569 5567 5566 5567 5567 5566 5564 5563 5562 5561 5562 5563 5562 5562 5561 5560 5560 5560 5560 5560 5559 5559 5559 5560 5561 5560 5560 5559 5560 5561 5561 5561 5560 5560 5561 5561 5561 5562 5562 5563 5564 5564 5564 5564 5564 5565 5565 5565 5566 5566 5567 5568 5569 5570 5571 5572 5573 5574 5575 5576 5577 5578 5579 5580 5580 5581 5582 5583 5583 5584 5584 5585 5585 5586 5586 5587 5589 5589 5589 5590 5591 5591 5591 5593 5594
5564 5564 5564 5561 5560 5561 5560 5559 5557 5556 5555 5555 5555 5555 5555 5554 5553 5552 5552 5553 5553 5552 5552 5551 5552 5552 5553 5552 5552 5552 5553 5553 5554 5554 5554 5553 5553 5553 5554 5554 5554 5554 5556 5556 5556 5556 5557 5557 5557 5558 5558 5559 5560 5561 5562 5563 5563 5564 5565 5567 5568 5569 5570 5571 5572 5573 5573 5574 5574 5575 5576 5577 5577 5577 5578 5579 5581 5581 5581 5581 5582 5583 5584 5584 5585 5587 5588
5559 5558 5558 5556 5555 5555 5555 5553 5551 5550 5549 5549 5548 5547 5546 5546 5545 5545 5545 5545 5545 5544 5544 5544 5544 5544 5544 5544 5544 5544 5544 5545 5546 5546 5546 5547 5546 5546 5546 5546 5545 5546 5547 5548 5548 5548 5549 5549 5549 5550 5551 5551 5552 5554 5554 5555 5556 5557 5558 5559 5561 5562 5563 5564 5565 5565 5566 5566 5567 5567 5568 5569 5570 5570 5571 5573 5574 5574 5574 5575 5576 5577 5577 5578 5580 5580 5581
5553 5553 5552 5550 5549 5549 5548 5547 5545 5544 5544 5543 5541 5540 5539 5539 5539 5538 5538 5538 5537 5537 5536 5536 5536 5536 5536 5536 5536 5536 5535 5536 5536 5537 5538 5539 5538 5538 5538 5538 5538 5539 5540 5540 5540 5540 5540 5541 5541 5542 5542 5544 5545 5546 5547 5547 5548 5549 5550 5552 5553 5555 5556 5556 5557 5558 5558 5559 5559 5560 5561 5562 5563 5563 5564 5566 5567 5566 5567 5568 5569 5570 5571 5572 5573 5573 5574
5547 5547 5546 5544 5543 5542 5541 5541 5540 5538 5537 5536 5535 5534 5533 5532 5532 5531 5531 5530 5530 5529 5529 5528 5528 5528 5528 5527 5527 5527 5526 5526 5526 5527 5528 5528 5528 5529 5529 5529 5529 5530 5531 5531 5531 5531 5532 5533 5533 5533 5534 5536 5537 5538 5539 5540 5541 5542 5543 5544 5546 5547 5548 5549 5550 5550 5551 5551 5553 5553 5554 5555 5555 5556 5557 5558 5559 5559 5560 5561 5562 5563 5564 5565 5566 5567 5568
5541 5541 5539 5537 5536 5536 5535 5534 5532 5531 5530 5529 5529 5528 5527 5525 5525 5524 5524 5523 5522 5522 5521 5520 5519 5519 5519 5518 5518 5518 5518 5517 5517 5517 5518 5518 5518 5518 5518 5518 5519 5520 5521 5521 5522 5523 5524 5524 5524 5525 5526 5528 5529 5530 5531 5532 5534 5535 5536 5537 5538 5539 5541 5542 5543 5543 5543 5544 5545 5545 5546 5547 5548 5548 5549 5550 5551 5552 5553 5554 5555 5556 5557 5558 5560 5560 5561
5535 5534 5533 5531 5530 5530 5529 5527 5525 5523 5523 5523 5521 5520 5520 5519 5518 5517 5517 5515 5514 5514 5512 5511 5510 5510 5510 5510 5509 5509 5509 5509 5508 5508 5508 5508 5508 5507 5507 5508 5510 5511 5512 5512 5512 5514 5515 5515 5515 5516 5518 5519 5520 5521 5523 5524 5526 5527 5528 5529 5530 5531 5533 5534 5535 5535 5535 5536 5537 5537 5538 5539 5540 5541 5541 5542 5543 5545 5546 5547 5548 5550 5550 5551 5553 5554 5554
5528 5527 5526 5524 5523 5522 5521 5520 5518 5516 5516 5515 5514 5513 5513 5512 5511 5510 5510 5509 5508 5506 5505 5503 5502 5501 5501 5501 5500 5499 5499 5499 5498 5498 5497 5497 5497 5497 5497 5499 5500 5501 5502 5502 5503 5504 5505 5506 5506 5507 5508 5510 5511 5512 5514 5516 5517 5519 5520 5521 5522 5524 5525 5526 5527 5527 5528 5529 5529 5529 5531 5532 5532 5533 5534 5535 5536 5538 5539 5540 5542 5543 5545 5546 5547 5548 5549
5522 5520 5519 5517 5516 5515 5514 5513 5512 5510 5509 5508 5508 5507 5506 5505 5505 5504 5503 5502 5501 5500 5499 5497 5495 5493 5492 5492 5491 5491 5490 5489 5488 5488 5487 5488 5488 5488 5489 5489 5490 5491 5492 5492 5492 5493 5495 5495 5497 5498 5499 5501 5502 5503 5505 5506 5509 5511 5513 5514 5515 5517 5518 5519 5520 5520 5521 5522 5522 5523 5524 5525 5526 5527 5528 5529 5531 5533 5534 5535 5537 5538 5539 5541 5542 5544 5546
5516 5514 5513 5511 5511 5510 5508 5507 5506 5505 5503 5502 5502 5502 5501 5500 5500 5499 5498 5497 5495 5494 5493 5491 5489 5487 5485 5484 5484 5483 5482 5482 5480 5480 5479 5480 5480 5480 5480 5480 5481 5481 5482 5482 5483 5484 5485 5486 5487 5488 5490 5491 5493 5494 5495 5497 5500 5503 5505 5507 5509 5510 5511 5512 5513 5513 5515 5516 5517 5518 5519 5520 5521 5523 5525 5526 5528 5529 5531 5532 5533 5535 5536 5538 5539 5541 5543
5511 5510 5508 5507 5506 5505 5504 5503 5502 5501 5500 5499 5499 5499 5498 5497 5496 5495 5494 5492 5491 5489 5487 5486 5484 5482 5480 5479 5478 5477 5476 5476 5475 5474 5473 5473 5473 5473 5473 5473 5473 5473 5474 5475 5476 5476 5477 5477 5478 5479 5481 5482 5484 5486 5488 5490 5493 5495 5497 5499 5501 5503 5504 5506 5507 5508 5510 5512 5513 5514 5516 5517 5519 5521 5522 5524 5525 5527 5528 5529 5531 5532 5534 5536 5537 5539 5541
5507 5506 5505 5504 5503 5502 5501 5500 5499 5499 5498 5497 5496 5496 5495 5494 5493 5491 5490 5489 5487 5486 5484 5482 5480 5479 5477 5475 5474 5473 5472 5471 5471 5470 5469 5469 5469 5468 5468 5468 5468 5469 5470 5470 5471 5471 5471 5471 5471 5472 5473 5475 5477 5479 5481 5483 5485 5487 5490 5492 5495 5497 5499 5501 5502 5504 5507 5509 5510 5512 5514 5515 5517 5518 5520 5522 5523 5525 5526 5527 5529 5531 5532 5534 5536 5538 5539
5504 5503 5502 5502 5501 5500 5499 5498 5497 5497 5495 5494 5493 5492 5491 5490 5489 5488 5487 5486 5485 5483 5481 5479 5478 5476 5474 5472 5471 5470 5469 5468 5468 5467 5467 5466 5466 5465 5465 5465 5466 5467 5467 5467 5467 5467 5467 5467 5467 5468 5469 5471 5472 5474 5475 5477 5480 5482 5484 5487 5490 5493 5495 5497 5499 5501 5504 5506 5509 5511 5512 5514 5515 5516 5518 5520 5522 5523 5525 5526 5528 5530 5531 5533 5535 5536 5537
5502 5501 5500 5499 5499 5498 5497 5496 5495 5494 5493 5492 5491 5490 5489 5488 5487 5486 5485 5484 5483 5481 5479 5477 5475 5474 5472 5471 5469 5468 5467 5466 5465 5464 5464 5463 5463 5463 5463 5464 5464 5465 5465 5465 5465 5465 5465 5465 5465 5466 5467 5468 5470 5471 5473 5475 5477 5479 5482 5484 5487 5489 5492 5494 5497 5499 5502 5504 5506 5508 5510 5512 5513 5515 5516 5518 5520 5522 5524 5525 5527 5528 5530 5532 5533 5535 5536
5500 5499 5498 5498 5497 5496 5495 5494 5493 5492 5491 5490 5489 5488 5487 5486 5485 5484 5483 5482 5480 5479 5477 5476 5474 5473 5471 5469 5468 5466 5464 5463 5462 5462 5461 5461 5461 5461 5461 5462 5463 5463 5464 5464 5464 5464 5465 5465 5465 5466 5467 5468 5469 5471 5472 5474 5475 5477 5479 5482 5484 5487 5490 5492 5495 5497 5500 5502 5505 5507 5508 5510 5512 5514 5515 5517 5519 5521 5523 5524 5526 5527 5529 5531 5532 5533 5534
5499 5498 5497 5496 5495 5494 5493 5492 5491 5490 5489 5488 5487 5486 5485 5484 5483 5482 5481 5480 5479 5478 5476 5475 5474 5472 5470 5468 5465 5462 5461 5461 5460 5460 5460 5460 5460 5460 5460 5461 5462 5463 5463 5464 5464 5465 5465 5465 5465 5466 5467 5468 5469 5471 5472 5473 5474 5476 5477 5480 5483 5485 5488 5491 5493 5496 5499 5501 5503 5506 5508 5509 5511 5513 5515 5516 5518 5520 5522 5523 5525 5526 5528 5529 5530 5531 5532
5497 5496 5496 5495 5494 5492 5492 5491 5490 5489 5488 5486 5485 5484 5483 5483 5482 5482 5481 5480 5479 5478 5476 5475 5473 5471 5469 5465 5462 5460 5459 5459 5459 5460 5460 5460 5461 5461 5461 5462 5463 5464 5464 5465 5465 5465 5466 5466 5467 5468 5469 5470 5471 5472 5473 5474 5475 5476 5478 5480 5482 5485 5487 5490 5493 5495 5498 5501 5503 5505 5507 5509 5511 5513 5514 5516 5517 5519 5521 5522 5524 5525 5526 5527 5529 5530 5531
5496 5495 5494 5493 5493 5492 5491 5490 5489 5488 5487 5486 5485 5484 5483 5483 5482 5482 5481 5480 5479 5478 5476 5475 5474 5471 5467 5463 5461 5460 5459 5459 5459 5460 5460 5461 5462 5462 5463 5464 5464 5465 5466 5466 5467 5467 5468 5469 5470 5471 5471 5472 5473 5474 5475 5476 5477 5478 5479 5481 5484 5486 5488 5491 5493 5496 5498 5501 5503 5505 5507 5509 5510 5512 5513 5515 5517 5518 5520 5521 5522 5523 5525 5526 5528 5529 5531
5495 5494 5493 5492 5492 5492 5491 5490 5489 5488 5486 5486 5485 5484 5484 5483 5482 5482 5481 5480 5479 5478 5477 5476 5474 5471 5466 5463 5461 5460 5460 5460 5460 5461 5461 5462 5463 5464 5465 5466 5467 5468 5469 5469 5469 5470 5471 5472 5472 5473 5474 5474 5475 5477 5478 5479 5480 5481 5482 5484 5486 5488 5490 5492 5494 5497 5499 5501 5503 5505 5507 5508 5510 5511 5513 5514 5516 5518 5519 5520 5521 5522 5524 5525 5527 5528 5530
5494 5493 5492 5492 5492 5491 5491 5490 5489 5488 5487 5486 5485 5485 5484 5483 5483 5482 5481 5481 5480 5479 5478 5476 5474 5471 5468 5466 5464 5463 5463 5462 5463 5463 5464 5465 5466 5467 5469 5470 5471 5472 5472 5472 5473 5473 5473 5473 5474 5475 5476 5477 5478 5479 5480 5481 5482 5484 5485 5487 5488 5490 5492 5494 5496 5498 5499 5501 5503 5505 5507 5508 5510 5511 5512 5514 5515 5516 5517 5518 5520 5521 5523 5525 5526 5528 5529
5493 5492 5492 5492 5492 5491 5490 5490 5489 5488 5487 5486 5486 5485 5485 5484 5484 5483 5482 5482 5481 5480 5479 5477 5476 5474 5472 5470 5469 5468 5468 5467 5468 5468 5469 5470 5471 5472 5473 5474 5474 5475 5475 5475 5475 5475 5475 5476 5476 5477 5478 5479 5480 5481 5482 5483 5485 5486 5487 5489 5490 5492 5494 5495 5497 5498 5500 5502 5503 5505 5506 5508 5509 5510 5511 5513 5514 5515 5516 5518 5519 5521 5523 5524 5526 5527 5527
5492 5492 5492 5491 5491 5490 5490 5490 5489 5488 5488 5487 5486 5486 5485 5485 5484 5484 5483 5483 5482 5481 5480 5479 5478 5477 5476 5474 5473 5473 5473 5473 5473 5474 5474 5475 5476 5476 5477 5477 5477 5478 5478 5478 5478 5478 5478 5478 5478 5479 5480 5481 5482 5483 5484 5485 5486 5488 5489 5490 5492 5493 5494 5496 5497 5499 5500 5501 5503 5504 5506 5507 5508 5509 5510 5511 5513 5514 5515 5517 5519 5520 5522 5523 5524 5525 5526
5492 5492 5492 5491 5490 5490 5489 5489 5489 5489 5488 5487 5486 5486 5486 5485 5485 5484 5484 5483 5483 5482 5482 5481 5480 5480 5479 5478 5477 5476 5477 5477 5477 5478 5478 5479 5479 5480 5480 5480 5480 5480 5480 5481 5480 5480 5481 5481 5481 5481 5482 5483 5483 5484 5485 5486 5487 5489 5490 5491 5492 5494 5495 5496 5497 5498 5500 5501 5502 5503 5505 5506 5507 5508 5509 5511 5512 5514 5515 5517 5518 5520 5521 5522 5523 5524 5524
5492 5492 5491 5490 5490 5489 5489 5489 5489 5488 5488 5487 5487 5486 5486 5485 5485 5485 5484 5484 5484 5483 5483 5482 5482 5481 5481 5480 5480 5479 5479 5480 5480 5481 5482 5482 5483 5483 5483 5483 5483 5483 5483 5483 5483 5483 5483 5483 5483 5484 5484 5485 5485 5486 5487 5487 5488 5489 5491 5492 5493 5494 5495 5496 5497 5498 5499 5501 5502 5503 5504 5505 5507 5508 5509 5510 5512 5513 5515 5516 5517 5519 5520 5521 5521 5522 5523
5492 5491 5491 5490 5490 5489 5489 5489 5488 5488 5488 5487 5487 5486 5486 5486 5485 5485 5485 5484 5484 5484 5484 5484 5483 5483 5483 5483 5482 5482 5482 5482 5482 5483 5484 5484 5485 5486 5486 5486 5486 5486 5486 5486 5485 5485 5485 5486 5486 5486 5487 5487 5487 5488 5488 5489 5490 5491 5491 5492 5493 5494 5496 5497 5498 5499 5500 5501 5502 5503 5504 5505 5507 5508 5509 5510 5512 5513 5514 5515 5516 5517 5518 5519 5520 5520 5521
5491 5491 5490 5490 5490 5489 5489 5488 5488 5488 5488 5487 5487 5486 5486 5486 5486 5485 5485 5485 5485 5485 5484 5484 5484 5484 5484 5484 5484 5484 5484 5484 5484 5484 5484 5485 5486 5486 5487 5487 5487 5488 5488 5488 5487 5487 5487 5488 5488 5489 5489 5489 5490 5490 5490 5491 5492 5492 5493 5494 5495 5496 5497 5498 5499 5499 5500 5501 5503 5504 5505 5506 5507 5508 5510 5511 5512 5513 5514 5515 5515 5516 5517 5517 5518 5519 5519
5490 5490 5490 5490 5490 5489 5489 5488 5488 5488 5488 5487 5487 5487 5486 5486 5486 5486 5485 5485 5485 5485 5485 5485 5485 5485 5485 5485 5485 5485 5485 5485 5485 5485 5485 5485 5486 5486 5487 5487 5488 5488 5489 5489 5489 5489 5489 5489 5490 5490 5491 5491 5492 5492 5492 5493 5493 5494 5495 5495 5496 5497 5498 5499 5500 5500 5501 5502 5503 5504 5505 5506 5508 5509 5510 5511 5512 5512 5513 5514 5514 5515 5515 5516 5517 5517 5518
5489 5489 5489 5489 5489 5489 5489 5488 5488 5488 5488 5488 5487 5487 5487 5486 5486 5486 5485 5485 5485 5485 5485 5485 5485 5485 5485 5485 5485 5485 5485 5486 5486 5486 5486 5486 5487 5487 5487 5487 5488 5488 5489 5489 5490 5490 5490 5491 5491 5491 5492 5492 5493 5493 5494 5494 5495 5495 5496 5496 5497 5498 5499 5499 5500 5501 5502 5502 5503 5504 5505 5506 5507 5508 5509 5510 5511 5511 5512 5513 5513 5514 5514 5515 5515 5516 5516
5487 5488 5488 5488 5488 5488 5488 5488 5488 5487 5488 5487 5487 5487 5487 5486 5486 5486 5486 5485 5485 5485 5485 5485 5485 5485 5485 5485 5485 5485 5486 5486 5486 5486 5487 5487 5487 5487 5488 5488 5488 5488 5489 5489 5490 5490 5490 5491 5491 5492 5492 5492 5493 5493 5494 5495 5495 5496 5496 5497 5497 5498 5499 5499 5500 5501 5501 5502 5503 5504 5504 5505 5506 5507 5508 5509 5509 5510 5511 5511 5512 5513 5513 5513 5514 5514 5515
5486 5486 5487 5487 5487 5487 5487 5487 5487 5487 5487 5487 5487 5487 5487 5487 5486 5486 5486 5486 5486 5485 5485 5485 5486 5485 5485 5485 5485 5485 5485 5486 5486 5486 5486 5486 5487 5487 5487 5488 5488 5488 5489 5489 5489 5490 5490 5491 5491 5491 5492 5492 5492 5493 5493 5494 5495 5496 5496 5497 5497 5498 5498 5499 5500 5500 5501 5501 5502 5502 5503 5504 5505 5506 5507 5507 5508 5509 5509 5510 5511 5511 5512 5512 5512 5513 5513
5485 5485 5486 5486 5486 5486 5486 5486 5486 5486 5487 5487 5487 5486 5486 5486 5486 5486 5486 5486 5486 5486 5486 5486 5486 5486 5486 5486 5486 5486 5486 5486 5486 5486 5486 5486 5486 5486 5487 5487 5488 5488 5488 5489 5489 5490 5490 5490 5491 5491 5491 5491 5492 5492 5493 5493 5494 5495 5495 5496 5496 5497 5497 5498 5498 5499 5500 5500 5501 5501 5502 5503 5504 5504 5505 5506 5507 5507 5508 5508 5509 5509 5510 5510 5510 5511 5511
5483 5484 5484 5484 5485 5485 5485 5485 5485 5486 5486 5486 5486 5486 5486 5486 5486 5486 5486 5487 5487 5487 5486 5486 5486 5486 5486 5486 5486 5486 5486 5486 5486 5486 5486 5486 5486 5486 5486 5487 5487 5487 5488 5488 5488 5489 5489 5490 5490 5490 5490 5491 5491 5491 5492 5492 5493 5493 5494 5494 5495 5496 5496 5497 5497 5497 5498 5499 5499 5500 5501 5501 5502 5503 5503 5504 5505 5505 5506 5506 5507 5507 5507 5508 5508 5508 5509
5481 5481 5482 5482 5483 5483 5484 5484 5484 5484 5485 5485 5486 5486 5486 5486 5486 5486 5486 5486 5486 5486 5487 5487 5487 5487 5487 5486 5486 5486 5486 5486 5486 5486 5486 5486 5486 5486 5486 5486 5486 5487 5487 5487 5487 5487 5488 5488 5488 5489 5489 5489 5489 5490 5490 5491 5491 5491 5492 5492 5493 5494 5494 5495 5495 5496 5496 5497 5497 5498 5499 5499 5500 5500 5501 5501 5502 5503 5503 5504 5504 5505 5505 5505 5506 5506 5506
5478 5479 5479 5480 5481 5481 5482 5482 5482 5483 5484 5484 5485 5485 5485 5485 5486 5486 5486 5486 5486 5486 5486 5486 5486 5486 5486 5486 5486 5486 5486 5486 5485 5485 5485 5485 5485 5486 5486 5486 5486 5486 5486 5486 5486 5486 5486 5486 5486 5487 5487 5487 5487 5488 5488 5488 5489 5489 5489 5490 5490 5491 5492 5492 5493 5493 5494 5494 5495 5495 5496 5496 5497 5498 5498 5499 5499 5500 5500 5501 5501 5502 5502 5503 5503 5503 5504
5475 5476 5477 5478 5478 5479 5480 5480 5480 5481 5482 5482 5483 5483 5484 5484 5485 5485 5485 5485 5485 5485 5485 5485 5485 5485 5485 5485 5485 5485 5485 5485 5485 5485 5484 5484 5484 5484 5484 5484 5484 5484 5484 5484 5484 5484 5484 5484 5484 5484 5484 5484 5484 5485 5485 5485 5486 5486 5487 5487 5488 5488 5489 5489 5489 5490 5490 5491 5492 5492 5493 5493 5494 5494 5495 5495 5496 5496 5497 5498 5498 5499 5499 5500 5500 5500 5501
5472 5473 5474 5475 5476 5477 5477 5478 5478 5479 5480 5481 5481 5482 5482 5483 5483 5483 5484 5484 5484 5484 5484 5484 5483 5483 5483 5483 5483 5482 5482 5483 5483 5483 5483 5482 5482 5482 5482 5482 5482 5482 5482 5482 5482 5482 5482 5481 5481 5481 5481 5481 5481 5481 5482 5482 5482 5483 5483 5484 5484 5485 5485 5486 5486 5486 5487 5488 5488 5489 5489 5490 5490 5490 5491 5491 5492 5493 5493 5494 5495 5496 5496 5496 5497 5497 5497
5469 5470 5471 5472 5473 5474 5475 5475 5476 5477 5478 5478 5479 5480 5480 5481 5481 5482 5482 5482 5482 5483 5483 5482 5482 5482 5481 5481 5481 5481 5480 5480 5480 5480 5480 5480 5479 5479 5479 5479 5478 5478 5478 5478 5478 5478 5478 5478 5478 5477 5477 5477 5478 5478 5478 5478 5478 5479 5479 5480 5480 5481 5481 5482 5482 5482 5483 5484 5484 5485 5485 5486 5486 5486 5487 5487 5488 5489 5490 5490 5491 5492 5492 5493 5493 5494 5494